Starlink 5050

operational
NORAD ID: 53890 Int'l Des: 2022-119 Owner: SPXS Country: US Constellation: starlink
LEOCIRCULAR

关于 Starlink 5050

正在加载描述...

实时位置

正在加载3D地球...

即将过境

高度历史

Altitude vs Time

uPlot chart will show altitude changes over time

两行轨道根数

1 53890U 22119E 25303.89424227 .00000756 00000-0 65602-4 0 9992
2 53890 53.2164 151.5794 0001355 97.9121 262.2025 15.08821691172586
Epoch: Oct 30, 2025 • Age: 22 hours

当前状态

高度 544.2 km
速度 7.59 km/s
星下点 -15.78°S, 14.2°E
发射日期 Sep 24, 2022
运行时间 3 years
类型 internet

技术详情

分类 Payload
质量 305.00 kg
干质量 290.00 kg
总质量 305.00 kg
长度 0.20 m
直径 2.80 m
跨度 9.00 m
形状 Box + pan
制造商 SPXS
平台类型 Starlink
阶段状态 In Orbit
所有者/国家 SPXS/US

大型星座

Loading constellations...